Location: Waco, TX
(31.5480°N, 97.1670°W)
Time: 11:48:09
(UTC-05:00)

ISS - Pass Details

Date: 18 September 2018
Orbit: 403 x 408 km, 51.6° (Epoch: 26 September)

Event Time Altitude Azimuth Distance (km) Brightness Sun altitude
Rises 22:57:21 0° 271° (W) 2,324 - -42.3°
Reaches altitude 10° 23:00:33 10° 305° (NW) 1,466 - -42.8°
Maximum altitude 23:01:51 12° 328° (NNW) 1,360 - -43.0°
Drops below altitude 10° 23:03:09 10° 352° (N) 1,467 - -43.3°
Sets 23:06:22 0° 26° (NNE) 2,328 - -43.8°
